Location: Lynch Observatory
(39.9540°N, 75.1861°W)
Time: 05:36:00
(UTC-05:00)

OTV 5 (USA 277) - Visible Passes

Search period start: 22 January 2018 00:00
Search period end: 01 February 2018 00:00
Orbit: 404 x 417 km, 43.0° (Epoch: 07 September)

Date Brightness Start Highest point End Pass type
(mag) Time Alt. Az. Time Alt. Az. Time Alt. Az.
22 Jan ? 18:41:52 10° SW 18:44:57 34° SSE 18:44:58 34° SSE visible
23 Jan ? 17:51:17 10° SSW 17:53:59 23° SSE 17:56:29 11° E visible
23 Jan ? 19:27:42 10° WSW 19:29:15 25° WSW 19:29:15 25° WSW visible
24 Jan ? 18:36:39 10° WSW 18:40:00 73° SSE 18:40:43 51° E visible
25 Jan ? 17:45:41 10° SW 17:48:58 51° SSE 17:52:08 11° ENE visible
25 Jan ? 19:23:00 10° W 19:24:54 29° WNW 19:24:54 29° WNW visible
26 Jan ? 18:31:51 10° W 18:35:12 65° NNW 18:36:18 38° NE visible
27 Jan ? 17:40:43 10° WSW 17:44:06 82° NNW 17:47:29 10° ENE visible
27 Jan ? 19:18:21 10° WNW 19:20:26 31° NW 19:20:26 31° NW visible
28 Jan ? 18:27:11 10° W 18:30:29 49° N 18:31:49 29° NE visible
29 Jan ? 19:13:36 10° WNW 19:15:58 38° NW 19:15:58 38° NW visible
30 Jan ? 18:22:30 10° WNW 18:25:48 49° N 18:27:23 26° ENE visible
30 Jan ? 19:59:52 10° WNW 20:00:09 12° WNW 20:00:09 12° WNW visible
31 Jan ? 19:08:47 10° WNW 19:11:38 60° WNW 19:11:38 60° WNW visible
